Silver Cloud — C6MQ5 — position and weather

sailwx.info

Track history (hours):
 
Tides and Currents Weather Stations Pressure Air Temp Water Temp Dewpoint Dewpoint Depression Visibility Wind Speed Wind Dir Waves Ship Positions

Silver Cloud

Operator: V Ships Leisure SAM

Last reported at 2017-Apr-24 16:02 UTC. Time now 2017-Apr-25 12:33 UTC.
Position N 37°56' E 025°24'.

Length 156 m; draft 5.7 m.

Type: Passenger vessel. MMSI: 309027000.

Date/timePositionNaut miles runAvg speedWind from/ knotsBaromVisibWave heightAir tempDewpointWater temp
2017-Apr-24 16:02N 37°56' E 025°24'112.9
2017-Apr-24 15:59N 37°55' E 025°24'612.9
2017-Apr-24 15:30N 37°49' E 025°24'613.0
2017-Apr-24 15:00N 37°43' E 025°24'612.3
2017-Apr-24 14:30N 37°37' E 025°22'9 9.2
2017-Apr-24 13:30N 37°28' E 025°19'0 0.0
2017-Apr-24 13:00N 37°28' E 025°19'0 0.0
2017-Apr-24 12:27N 37°28' E 025°19'0 0.0
2017-Apr-24 12:00N 37°28' E 025°19'0 0.0
2017-Apr-24 11:30N 37°28' E 025°19'0 0.0
2017-Apr-24 11:00N 37°28' E 025°19'0 0.0
2017-Apr-24 10:30N 37°28' E 025°19'0 0.0
2017-Apr-24 10:00N 37°28' E 025°19'0 0.0
2017-Apr-24 09:30N 37°28' E 025°19'0 0.0
2017-Apr-24 09:00N 37°28' E 025°19'0 0.0
2017-Apr-24 08:30N 37°28' E 025°19'0 0.0
2017-Apr-24 07:57N 37°28' E 025°19'0 0.0
2017-Apr-24 07:30N 37°28' E 025°19'0 0.0
2017-Apr-24 07:00N 37°28' E 025°19'0 0.0
2017-Apr-24 06:30N 37°28' E 025°19'0 0.0
2017-Apr-24 06:00N 37°28' E 025°19'0 0.0
2017-Apr-24 05:30N 37°28' E 025°19'0 0.0
2017-Apr-24 05:00N 37°28' E 025°19'0 0.0
2017-Apr-24 04:30N 37°28' E 025°19'2 4.3
2017-Apr-24 04:00N 37°28' E 025°17'612.6
2017-Apr-24 03:31N 37°33' E 025°23'713.3
2017-Apr-24 03:00N 37°35' E 025°31'612.4
2017-Apr-24 02:30N 37°37' E 025°38'612.4
2017-Apr-24 02:00N 37°39' E 025°45'  
2017-Apr-20 01:13N 37°04' E 023°27'3711.5
2017-Apr-19 21:59N 37°39' E 023°42'612.0
2017-Apr-19 21:30N 37°45' E 023°39'612.0
2017-Apr-19 21:00N 37°50' E 023°36'611.1
2017-Apr-19 20:30N 37°56' E 023°37'1 3.0
2017-Apr-19 20:00N 37°56' E 023°38'0 0.0
2017-Apr-19 19:30N 37°56' E 023°38'0 0.0
2017-Apr-19 19:00N 37°56' E 023°38'0 0.0
2017-Apr-19 18:30N 37°56' E 023°38'0 0.0
2017-Apr-19 18:00N 37°56' E 023°38'0 0.0
2017-Apr-19 17:30N 37°56' E 023°38'0 0.0
2017-Apr-19 17:00N 37°56' E 023°38'0 0.0
2017-Apr-19 16:30N 37°56' E 023°38'0 0.0
2017-Apr-19 16:00N 37°56' E 023°38'0 0.0
2017-Apr-19 15:30N 37°56' E 023°38'0 0.0
2017-Apr-19 15:00N 37°56' E 023°38'0 0.0
2017-Apr-19 14:30N 37°56' E 023°38'0 0.0
2017-Apr-19 13:30N 37°56' E 023°38'0 0.0
2017-Apr-19 13:00N 37°56' E 023°38'0 0.0
2017-Apr-19 12:30N 37°56' E 023°38'0 0.0
2017-Apr-19 12:00N 37°56' E 023°38'0 0.0
2017-Apr-19 11:30N 37°56' E 023°38'0 0.0
2017-Apr-19 10:36N 37°56' E 023°38'0 0.1
2017-Apr-19 10:30N 37°56' E 023°38'0 0.0
2017-Apr-19 09:31N 37°56' E 023°38'0 0.0
2017-Apr-19 09:00N 37°56' E 023°38'0 0.0
2017-Apr-19 08:30N 37°56' E 023°38'0 0.0
2017-Apr-19 08:00N 37°56' E 023°38'0 0.0
2017-Apr-19 07:30N 37°56' E 023°38'0 0.0
2017-Apr-19 07:00N 37°56' E 023°38'0 0.0
2017-Apr-19 06:30N 37°56' E 023°38'0 0.0
2017-Apr-19 05:57N 37°56' E 023°38'0 0.0
2017-Apr-19 05:27N 37°56' E 023°38'0 0.0
2017-Apr-19 05:00N 37°56' E 023°38'0 0.0
2017-Apr-19 04:30N 37°56' E 023°38'0 0.6
2017-Apr-19 04:00N 37°56' E 023°38'2 3.0
2017-Apr-19 03:30N 37°55' E 023°36'0 0.2
2017-Apr-19 03:00N 37°55' E 023°37'510.5
2017-Apr-19 02:30N 37°50' E 023°39'713.5
2017-Apr-19 02:00N 37°44' E 023°43'713.5
2017-Apr-19 01:30N 37°38' E 023°46'713.4
2017-Apr-19 00:59N 37°31' E 023°48'814.1
2017-Apr-19 00:26N 37°24' E 023°51'46714.8
2017-Apr-17 16:57N 34°30' E 032°47'716.8
2017-Apr-17 16:30N 34°29' E 032°56'815.9
2017-Apr-17 16:00N 34°30' E 033°05'714.4
2017-Apr-17 15:30N 34°37' E 033°06'5 9.6
2017-Apr-17 15:00N 34°39' E 033°01'0 0.0
2017-Apr-17 13:59N 34°39' E 033°01'0 0.0
2017-Apr-17 13:20N 34°39' E 033°01'0 0.0
2017-Apr-17 12:59N 34°39' E 033°01'0 0.0
2017-Apr-17 12:20N 34°39' E 033°01'0 0.0
2017-Apr-17 11:29N 34°39' E 033°01'0 0.0
2017-Apr-17 10:14N 34°39' E 033°01'0 0.0
2017-Apr-17 09:59N 34°39' E 033°01'0 0.0
2017-Apr-17 09:23N 34°39' E 033°01'0 0.0
2017-Apr-17 07:53N 34°39' E 033°01'0 0.0
2017-Apr-17 06:53N 34°39' E 033°01'0 0.0
2017-Apr-17 06:11N 34°39' E 033°01'0 0.0
2017-Apr-17 05:41N 34°39' E 033°01'0 0.0
2017-Apr-17 05:30N 34°39' E 033°01'1 2.0
2017-Apr-17 05:00N 34°39' E 033°02'612.1
2017-Apr-17 04:30N 34°36' E 033°08'713.7
2017-Apr-17 04:00N 34°29' E 033°10'2915.3
2017-Apr-17 02:06N 34°01' E 033°18'416.0
2017-Apr-17 01:53N 33°57' E 033°19'1115.8
2017-Apr-17 01:10N 33°46' E 033°22'4015.5
2017-Apr-16 22:37N 33°08' E 033°33'315.9
2017-Apr-16 22:26N 33°05' E 033°34'815.9
2017-Apr-16 21:56N 32°57' E 033°36'7314.6
2017-Apr-16 16:58N 31°56' E 034°22'916.1
2017-Apr-16 16:25N 31°52' E 034°31'13 0.8
2017-Apr-16 01:20N 32°05' E 034°32'412.2
2017-Apr-16 01:00N 32°09' E 034°33'612.1
2017-Apr-16 00:30N 32°15' E 034°35'612.0
2017-Apr-16 00:01N 32°20' E 034°37'612.2
2017-Apr-15 23:31N 32°26' E 034°39'612.2
2017-Apr-15 23:01N 32°32' E 034°41'612.1
2017-Apr-15 22:31N 32°38' E 034°43'612.3
2017-Apr-15 22:01N 32°44' E 034°45'612.2
2017-Apr-15 21:30N 32°50' E 034°47'611.1
2017-Apr-15 21:00N 32°53' E 034°53'510.3
2017-Apr-15 20:31N 32°52' E 034°59'3 5.6
2017-Apr-15 20:00N 32°49' E 035°00'0 0.2
2017-Apr-15 19:30N 32°49' E 035°00'0 0.0
2017-Apr-15 19:00N 32°49' E 035°00'0 0.0
2017-Apr-15 18:30N 32°49' E 035°00'0 0.0
2017-Apr-15 18:00N 32°49' E 035°00'0 0.0
2017-Apr-15 17:30N 32°49' E 035°00'0 0.0
2017-Apr-15 17:00N 32°49' E 035°00'0 0.0
2017-Apr-15 16:30N 32°49' E 035°00'0 0.0
2017-Apr-15 15:54N 32°49' E 035°00'0 0.0
2017-Apr-15 15:30N 32°49' E 035°00'0 0.0
2017-Apr-15 15:00N 32°49' E 035°00'0 0.0
2017-Apr-15 14:00N 32°49' E 035°00'0 0.0
2017-Apr-15 13:30N 32°49' E 035°00'0 0.0
2017-Apr-15 13:00N 32°49' E 035°00'0 0.0
2017-Apr-15 12:30N 32°49' E 035°00'0 0.0
2017-Apr-15 12:00N 32°49' E 035°00'0 0.0
2017-Apr-15 11:30N 32°49' E 035°00'0 0.0
2017-Apr-15 11:00N 32°49' E 035°00'0 0.0
2017-Apr-15 10:30N 32°49' E 035°00'0 0.0
2017-Apr-15 10:00N 32°49' E 035°00'0 0.0
2017-Apr-15 09:30N 32°49' E 035°00'0 0.0
2017-Apr-15 09:00N 32°49' E 035°00'0 0.0
2017-Apr-15 08:30N 32°49' E 035°00'0 0.0
2017-Apr-15 08:00N 32°49' E 035°00'0 0.0
2017-Apr-15 07:30N 32°49' E 035°00'0 0.0
2017-Apr-15 07:00N 32°49' E 035°00'0 0.0
2017-Apr-15 06:30N 32°49' E 035°00'0 0.0
2017-Apr-15 06:00N 32°49' E 035°00'0 0.0
2017-Apr-15 05:30N 32°49' E 035°00'0 0.0
2017-Apr-15 04:59N 32°49' E 035°00'1 2.4
2017-Apr-15 04:30N 32°50' E 035°01'5 9.2
2017-Apr-15 04:00N 32°52' E 034°56'815.3
2017-Apr-15 03:29N 32°53' E 034°47'2612.1
2017-Apr-15 01:23N 32°40' E 034°21'917.8
2017-Apr-15 00:53N 32°32' E 034°18'  
Track history (hours):
 
Tides and Currents Weather Stations Pressure Air Temp Water Temp Dewpoint Dewpoint Depression Visibility Wind Speed Wind Dir Waves Ship Positions

Silver Cloud

Operator: V Ships Leisure SAM

Last reported at 2017-Apr-24 16:02 UTC. Time now 2017-Apr-25 12:33 UTC.
Position N 37°56' E 025°24'.

Length 156 m; draft 5.7 m.

Type: Passenger vessel. MMSI: 309027000.

Date/timePositionNaut miles runAvg speedWind from/ knotsBaromVisibWave heightAir tempDewpointWater temp
2017-Apr-24 16:02N 37°56' E 025°24'112.9
2017-Apr-24 15:59N 37°55' E 025°24'612.9
2017-Apr-24 15:30N 37°49' E 025°24'613.0
2017-Apr-24 15:00N 37°43' E 025°24'612.3
2017-Apr-24 14:30N 37°37' E 025°22'9 9.2
2017-Apr-24 13:30N 37°28' E 025°19'0 0.0
2017-Apr-24 13:00N 37°28' E 025°19'0 0.0
2017-Apr-24 12:27N 37°28' E 025°19'0 0.0
2017-Apr-24 12:00N 37°28' E 025°19'0 0.0
2017-Apr-24 11:30N 37°28' E 025°19'0 0.0
2017-Apr-24 11:00N 37°28' E 025°19'0 0.0
2017-Apr-24 10:30N 37°28' E 025°19'0 0.0
2017-Apr-24 10:00N 37°28' E 025°19'0 0.0
2017-Apr-24 09:30N 37°28' E 025°19'0 0.0
2017-Apr-24 09:00N 37°28' E 025°19'0 0.0
2017-Apr-24 08:30N 37°28' E 025°19'0 0.0
2017-Apr-24 07:57N 37°28' E 025°19'0 0.0
2017-Apr-24 07:30N 37°28' E 025°19'0 0.0
2017-Apr-24 07:00N 37°28' E 025°19'0 0.0
2017-Apr-24 06:30N 37°28' E 025°19'0 0.0
2017-Apr-24 06:00N 37°28' E 025°19'0 0.0
2017-Apr-24 05:30N 37°28' E 025°19'0 0.0
2017-Apr-24 05:00N 37°28' E 025°19'0 0.0
2017-Apr-24 04:30N 37°28' E 025°19'2 4.3
2017-Apr-24 04:00N 37°28' E 025°17'612.6
2017-Apr-24 03:31N 37°33' E 025°23'713.3
2017-Apr-24 03:00N 37°35' E 025°31'612.4
2017-Apr-24 02:30N 37°37' E 025°38'612.4
2017-Apr-24 02:00N 37°39' E 025°45'  
2017-Apr-20 01:13N 37°04' E 023°27'3711.5
2017-Apr-19 21:59N 37°39' E 023°42'612.0
2017-Apr-19 21:30N 37°45' E 023°39'612.0
2017-Apr-19 21:00N 37°50' E 023°36'611.1
2017-Apr-19 20:30N 37°56' E 023°37'1 3.0
2017-Apr-19 20:00N 37°56' E 023°38'0 0.0
2017-Apr-19 19:30N 37°56' E 023°38'0 0.0
2017-Apr-19 19:00N 37°56' E 023°38'0 0.0
2017-Apr-19 18:30N 37°56' E 023°38'0 0.0
2017-Apr-19 18:00N 37°56' E 023°38'0 0.0
2017-Apr-19 17:30N 37°56' E 023°38'0 0.0
2017-Apr-19 17:00N 37°56' E 023°38'0 0.0
2017-Apr-19 16:30N 37°56' E 023°38'0 0.0
2017-Apr-19 16:00N 37°56' E 023°38'0 0.0
2017-Apr-19 15:30N 37°56' E 023°38'0 0.0
2017-Apr-19 15:00N 37°56' E 023°38'0 0.0
2017-Apr-19 14:30N 37°56' E 023°38'0 0.0
2017-Apr-19 13:30N 37°56' E 023°38'0 0.0
2017-Apr-19 13:00N 37°56' E 023°38'0 0.0
2017-Apr-19 12:30N 37°56' E 023°38'0 0.0
2017-Apr-19 12:00N 37°56' E 023°38'0 0.0
2017-Apr-19 11:30N 37°56' E 023°38'0 0.0
2017-Apr-19 10:36N 37°56' E 023°38'0 0.1
2017-Apr-19 10:30N 37°56' E 023°38'0 0.0
2017-Apr-19 09:31N 37°56' E 023°38'0 0.0
2017-Apr-19 09:00N 37°56' E 023°38'0 0.0
2017-Apr-19 08:30N 37°56' E 023°38'0 0.0
2017-Apr-19 08:00N 37°56' E 023°38'0 0.0
2017-Apr-19 07:30N 37°56' E 023°38'0 0.0
2017-Apr-19 07:00N 37°56' E 023°38'0 0.0
2017-Apr-19 06:30N 37°56' E 023°38'0 0.0
2017-Apr-19 05:57N 37°56' E 023°38'0 0.0
2017-Apr-19 05:27N 37°56' E 023°38'0 0.0
2017-Apr-19 05:00N 37°56' E 023°38'0 0.0
2017-Apr-19 04:30N 37°56' E 023°38'0 0.6
2017-Apr-19 04:00N 37°56' E 023°38'2 3.0
2017-Apr-19 03:30N 37°55' E 023°36'0 0.2
2017-Apr-19 03:00N 37°55' E 023°37'510.5
2017-Apr-19 02:30N 37°50' E 023°39'713.5
2017-Apr-19 02:00N 37°44' E 023°43'713.5
2017-Apr-19 01:30N 37°38' E 023°46'713.4
2017-Apr-19 00:59N 37°31' E 023°48'814.1
2017-Apr-19 00:26N 37°24' E 023°51'46714.8
2017-Apr-17 16:57N 34°30' E 032°47'716.8
2017-Apr-17 16:30N 34°29' E 032°56'815.9
2017-Apr-17 16:00N 34°30' E 033°05'714.4
2017-Apr-17 15:30N 34°37' E 033°06'5 9.6
2017-Apr-17 15:00N 34°39' E 033°01'0 0.0
2017-Apr-17 13:59N 34°39' E 033°01'0 0.0
2017-Apr-17 13:20N 34°39' E 033°01'0 0.0
2017-Apr-17 12:59N 34°39' E 033°01'0 0.0
2017-Apr-17 12:20N 34°39' E 033°01'0 0.0
2017-Apr-17 11:29N 34°39' E 033°01'0 0.0
2017-Apr-17 10:14N 34°39' E 033°01'0 0.0
2017-Apr-17 09:59N 34°39' E 033°01'0 0.0
2017-Apr-17 09:23N 34°39' E 033°01'0 0.0
2017-Apr-17 07:53N 34°39' E 033°01'0 0.0
2017-Apr-17 06:53N 34°39' E 033°01'0 0.0
2017-Apr-17 06:11N 34°39' E 033°01'0 0.0
2017-Apr-17 05:41N 34°39' E 033°01'0 0.0
2017-Apr-17 05:30N 34°39' E 033°01'1 2.0
2017-Apr-17 05:00N 34°39' E 033°02'612.1
2017-Apr-17 04:30N 34°36' E 033°08'713.7
2017-Apr-17 04:00N 34°29' E 033°10'2915.3
2017-Apr-17 02:06N 34°01' E 033°18'416.0
2017-Apr-17 01:53N 33°57' E 033°19'1115.8
2017-Apr-17 01:10N 33°46' E 033°22'4015.5
2017-Apr-16 22:37N 33°08' E 033°33'315.9
2017-Apr-16 22:26N 33°05' E 033°34'815.9
2017-Apr-16 21:56N 32°57' E 033°36'7314.6
2017-Apr-16 16:58N 31°56' E 034°22'916.1
2017-Apr-16 16:25N 31°52' E 034°31'13 0.8
2017-Apr-16 01:20N 32°05' E 034°32'412.2
2017-Apr-16 01:00N 32°09' E 034°33'612.1
2017-Apr-16 00:30N 32°15' E 034°35'612.0
2017-Apr-16 00:01N 32°20' E 034°37'612.2
2017-Apr-15 23:31N 32°26' E 034°39'612.2
2017-Apr-15 23:01N 32°32' E 034°41'612.1
2017-Apr-15 22:31N 32°38' E 034°43'612.3
2017-Apr-15 22:01N 32°44' E 034°45'612.2
2017-Apr-15 21:30N 32°50' E 034°47'611.1
2017-Apr-15 21:00N 32°53' E 034°53'510.3
2017-Apr-15 20:31N 32°52' E 034°59'3 5.6
2017-Apr-15 20:00N 32°49' E 035°00'0 0.2
2017-Apr-15 19:30N 32°49' E 035°00'0 0.0
2017-Apr-15 19:00N 32°49' E 035°00'0 0.0
2017-Apr-15 18:30N 32°49' E 035°00'0 0.0
2017-Apr-15 18:00N 32°49' E 035°00'0 0.0
2017-Apr-15 17:30N 32°49' E 035°00'0 0.0
2017-Apr-15 17:00N 32°49' E 035°00'0 0.0
2017-Apr-15 16:30N 32°49' E 035°00'0 0.0
2017-Apr-15 15:54N 32°49' E 035°00'0 0.0
2017-Apr-15 15:30N 32°49' E 035°00'0 0.0
2017-Apr-15 15:00N 32°49' E 035°00'0 0.0
2017-Apr-15 14:00N 32°49' E 035°00'0 0.0
2017-Apr-15 13:30N 32°49' E 035°00'0 0.0
2017-Apr-15 13:00N 32°49' E 035°00'0 0.0
2017-Apr-15 12:30N 32°49' E 035°00'0 0.0
2017-Apr-15 12:00N 32°49' E 035°00'0 0.0
2017-Apr-15 11:30N 32°49' E 035°00'0 0.0
2017-Apr-15 11:00N 32°49' E 035°00'0 0.0
2017-Apr-15 10:30N 32°49' E 035°00'0 0.0
2017-Apr-15 10:00N 32°49' E 035°00'0 0.0
2017-Apr-15 09:30N 32°49' E 035°00'0 0.0
2017-Apr-15 09:00N 32°49' E 035°00'0 0.0
2017-Apr-15 08:30N 32°49' E 035°00'0 0.0
2017-Apr-15 08:00N 32°49' E 035°00'0 0.0
2017-Apr-15 07:30N 32°49' E 035°00'0 0.0
2017-Apr-15 07:00N 32°49' E 035°00'0 0.0
2017-Apr-15 06:30N 32°49' E 035°00'0 0.0
2017-Apr-15 06:00N 32°49' E 035°00'0 0.0
2017-Apr-15 05:30N 32°49' E 035°00'0 0.0
2017-Apr-15 04:59N 32°49' E 035°00'1 2.4
2017-Apr-15 04:30N 32°50' E 035°01'5 9.2
2017-Apr-15 04:00N 32°52' E 034°56'815.3
2017-Apr-15 03:29N 32°53' E 034°47'2612.1
2017-Apr-15 01:23N 32°40' E 034°21'917.8
2017-Apr-15 00:53N 32°32' E 034°18'  

Dump ship's entire track history